• In Hungary
  • List of Countries
  • For 7 days
  • Water Temperature
  • Satellite Maps
  • Weather Map
  • News
  • Weather Widgets
  • user-avatar
    Login

    Hourly Weather Pune

    Today, 23 January, Tuesday

    Time Temperature Precipitation Wind Pressure Humidity
    00:00 +22°C° 0 mm 1 mps 710 mmHg 50%
    01:00 +21°C° 0 mm 1 mps 710 mmHg 52%
    02:00 +21°C° 0 mm 1 mps 710 mmHg 54%
    03:00 +20°C° 0 mm 1 mps 710 mmHg 55%
    04:00 +20°C° 0 mm 1 mps 710 mmHg 57%
    05:00 +20°C° 0 mm 1 mps 709 mmHg 59%
    06:00 +20°C° 0 mm 1 mps 710 mmHg 57%
    07:00 +21°C° 0 mm 1 mps 711 mmHg 55%
    08:00 +22°C° 0 mm 1 mps 711 mmHg 52%
    09:00 +24°C° 0 mm 1 mps 711 mmHg 45%
    10:00 +26°C° 0 mm 1 mps 711 mmHg 38%
    11:00 +28°C° 0 mm 1 mps 712 mmHg 31%
    12:00 +29°C° 0 mm 2 mps 711 mmHg 28%
    13:00 +30°C° 0 mm 2 mps 711 mmHg 26%
    14:00 +31°C° 0 mm 3 mps 710 mmHg 24%
    15:00 +30°C° 0 mm 3 mps 710 mmHg 26%
    16:00 +30°C° 0 mm 4 mps 710 mmHg 28%
    17:00 +29°C° 0 mm 4 mps 710 mmHg 31%
    18:00 +27°C° 0 mm 4 mps 710 mmHg 38%
    19:00 +25°C° 0 mm 3 mps 710 mmHg 46%
    20:00 +22°C° 0 mm 3 mps 710 mmHg 53%
    21:00 +21°C° 0 mm 3 mps 711 mmHg 58%
    22:00 +20°C° 0 mm 2 mps 711 mmHg 62%
    23:00 +19°C° 0 mm 2 mps 711 mmHg 66%

    Tomorrow, 24 January, Wednesday

    Time Temperature Precipitation Wind Pressure Humidity
    00:00 +19°C° 0 mm 2 mps 710 mmHg 66%
    01:00 +18°C° 0 mm 2 mps 710 mmHg 67%
    02:00 +19°C° 0 mm 1 mps 710 mmHg 67%
    03:00 +19°C° 0 mm 1 mps 710 mmHg 65%
    04:00 +18°C° 0 mm 1 mps 710 mmHg 64%
    05:00 +18°C° 0 mm 1 mps 710 mmHg 62%
    06:00 +19°C° 0 mm 1 mps 710 mmHg 57%
    07:00 +19°C° 0 mm 2 mps 711 mmHg 51%
    08:00 +20°C° 0 mm 2 mps 711 mmHg 46%
    09:00 +23°C° 0 mm 2 mps 712 mmHg 38%
    10:00 +25°C° 0 mm 2 mps 712 mmHg 31%
    11:00 +27°C° 0 mm 3 mps 713 mmHg 23%
    12:00 +29°C° 0 mm 2 mps 712 mmHg 22%
    13:00 +30°C° 0 mm 1 mps 711 mmHg 20%
    14:00 +31°C° 0 mm 1 mps 711 mmHg 19%
    15:00 +31°C° 0 mm 1 mps 711 mmHg 19%
    16:00 +30°C° 0 mm 1 mps 710 mmHg 19%
    17:00 +30°C° 0 mm 2 mps 710 mmHg 19%
    18:00 +28°C° 0 mm 2 mps 710 mmHg 22%
    19:00 +26°C° 0 mm 1 mps 711 mmHg 25%
    20:00 +24°C° 0 mm 1 mps 711 mmHg 27%
    21:00 +23°C° 0 mm 1 mps 711 mmHg 27%
    22:00 +23°C° 0 mm 2 mps 711 mmHg 27%
    23:00 +21°C° 0 mm 2 mps 711 mmHg 26%

    Day after tomorrow, 25 January, Thursday

    Time Temperature Precipitation Wind Pressure Humidity
    00:00 +20°C° 0 mm 2 mps 711 mmHg 26%
    01:00 +20°C° 0 mm 2 mps 710 mmHg 26%
    02:00 +19°C° 0 mm 2 mps 710 mmHg 26%
    03:00 +19°C° 0 mm 2 mps 710 mmHg 26%
    04:00 +19°C° 0 mm 1 mps 709 mmHg 27%
    05:00 +19°C° 0 mm 1 mps 709 mmHg 28%
    06:00 +20°C° 0 mm 1 mps 710 mmHg 26%
    07:00 +21°C° 0 mm 1 mps 711 mmHg 25%
    08:00 +21°C° 0 mm 2 mps 711 mmHg 24%
    09:00 +24°C° 0 mm 2 mps 712 mmHg 21%
    10:00 +26°C° 0 mm 2 mps 712 mmHg 19%
    11:00 +29°C° 0 mm 2 mps 713 mmHg 16%
    12:00 +30°C° 0 mm 2 mps 712 mmHg 15%
    13:00 +31°C° 0 mm 1 mps 711 mmHg 14%
    14:00 +32°C° 0 mm 1 mps 710 mmHg 12%
    15:00 +32°C° 0 mm 1 mps 710 mmHg 13%
    16:00 +31°C° 0 mm 1 mps 710 mmHg 13%
    17:00 +31°C° 0 mm 2 mps 710 mmHg 13%
    18:00 +28°C° 0 mm 2 mps 710 mmHg 16%
    19:00 +26°C° 0 mm 1 mps 710 mmHg 18%
    20:00 +24°C° 0 mm 1 mps 710 mmHg 20%
    21:00 +23°C° 0 mm 1 mps 710 mmHg 21%
    22:00 +22°C° 0 mm 1 mps 710 mmHg 21%
    23:00 +22°C° 0 mm 1 mps 710 mmHg 22%

    26 January, Friday

    Time Temperature Precipitation Wind Pressure Humidity
    00:00 +21°C° 0 mm 1 mps 710 mmHg 23%
    01:00 +21°C° 0 mm 1 mps 710 mmHg 24%
    02:00 +20°C° 0 mm 1 mps 709 mmHg 25%
    03:00 +20°C° 0 mm 1 mps 709 mmHg 25%
    04:00 +19°C° 0 mm 1 mps 709 mmHg 24%
    05:00 +19°C° 0 mm 1 mps 709 mmHg 23%
    06:00 +19°C° 0 mm 2 mps 710 mmHg 23%
    07:00 +20°C° 0 mm 2 mps 711 mmHg 22%
    08:00 +21°C° 0 mm 2 mps 711 mmHg 21%
    09:00 +24°C° 0 mm 2 mps 712 mmHg 18%
    10:00 +27°C° 0 mm 2 mps 712 mmHg 16%
    11:00 +29°C° 0 mm 2 mps 713 mmHg 13%
    12:00 +30°C° 0 mm 2 mps 712 mmHg 12%
    13:00 +31°C° 0 mm 1 mps 711 mmHg 12%
    14:00 +32°C° 0 mm 1 mps 710 mmHg 11%
    15:00 +32°C° 0 mm 1 mps 710 mmHg 12%
    16:00 +31°C° 0 mm 1 mps 710 mmHg 12%
    17:00 +31°C° 0 mm 1 mps 709 mmHg 13%
    18:00 +28°C° 0 mm 1 mps 710 mmHg 16%
    19:00 +26°C° 0 mm 1 mps 710 mmHg 19%
    20:00 +24°C° 0 mm 1 mps 710 mmHg 22%
    21:00 +23°C° 0 mm 1 mps 710 mmHg 22%
    22:00 +23°C° 0 mm 1 mps 710 mmHg 23%
    23:00 +22°C° 0 mm 1 mps 710 mmHg 23%

    27 January, Saturday

    Time Temperature Precipitation Wind Pressure Humidity
    00:00 +22°C° 0 mm 1 mps 710 mmHg 23%
    01:00 +21°C° 0 mm 1 mps 709 mmHg 24%
    02:00 +20°C° 0 mm 1 mps 709 mmHg 25%
    03:00 +20°C° 0 mm 1 mps 709 mmHg 24%
    04:00 +20°C° 0 mm 1 mps 709 mmHg 23%
    05:00 +20°C° 0 mm 1 mps 709 mmHg 23%
    06:00 +21°C° 0 mm 1 mps 710 mmHg 22%
    07:00 +21°C° 0 mm 2 mps 710 mmHg 21%
    08:00 +23°C° 0 mm 2 mps 711 mmHg 20%
    09:00 +25°C° 0 mm 2 mps 711 mmHg 18%
    10:00 +28°C° 0 mm 2 mps 712 mmHg 15%
    11:00 +30°C° 0 mm 3 mps 712 mmHg 13%
    12:00 +31°C° 0 mm 2 mps 711 mmHg 12%
    13:00 +32°C° 0 mm 2 mps 710 mmHg 11%
    14:00 +34°C° 0 mm 2 mps 710 mmHg 11%
    15:00 +32°C° 0 mm 2 mps 710 mmHg 12%
    16:00 +32°C° 0 mm 2 mps 709 mmHg 13%
    17:00 +31°C° 0 mm 2 mps 709 mmHg 14%
    18:00 +29°C° 0 mm 2 mps 710 mmHg 18%
    19:00 +27°C° 0 mm 2 mps 710 mmHg 22%
    20:00 +24°C° 0 mm 2 mps 710 mmHg 26%
    21:00 +24°C° 0 mm 2 mps 710 mmHg 27%
    22:00 +23°C° 0 mm 2 mps 710 mmHg 27%
    23:00 +23°C° 0 mm 2 mps 710 mmHg 28%

    28 January, Sunday

    Time Temperature Precipitation Wind Pressure Humidity
    00:00 +22°C° 0 mm 1 mps 710 mmHg 28%
    01:00 +22°C° 0 mm 1 mps 710 mmHg 28%
    02:00 +21°C° 0 mm 1 mps 709 mmHg 27%
    03:00 +21°C° 0 mm 1 mps 709 mmHg 28%
    04:00 +20°C° 0 mm 1 mps 709 mmHg 28%
    05:00 +20°C° 0 mm 1 mps 709 mmHg 28%
    06:00 +21°C° 0 mm 1 mps 710 mmHg 27%
    07:00 +22°C° 0 mm 1 mps 711 mmHg 25%
    08:00 +24°C° 0 mm 2 mps 711 mmHg 24%
    09:00 +26°C° 0 mm 2 mps 712 mmHg 21%
    10:00 +29°C° 0 mm 2 mps 712 mmHg 18%
    11:00 +31°C° 0 mm 3 mps 712 mmHg 15%
    12:00 +32°C° 0 mm 2 mps 712 mmHg 14%
    13:00 +32°C° 0 mm 2 mps 711 mmHg 13%
    14:00 +34°C° 0 mm 2 mps 710 mmHg 13%
    15:00 +34°C° 0 mm 2 mps 710 mmHg 14%
    16:00 +32°C° 0 mm 2 mps 710 mmHg 15%
    17:00 +32°C° 0 mm 2 mps 710 mmHg 16%
    18:00 +30°C° 0 mm 1 mps 710 mmHg 19%
    19:00 +27°C° 0 mm 1 mps 710 mmHg 23%
    20:00 +25°C° 0 mm 1 mps 711 mmHg 26%
    21:00 +24°C° 0 mm 1 mps 711 mmHg 27%
    22:00 +24°C° 0 mm 1 mps 711 mmHg 28%
    23:00 +23°C° 0 mm 1 mps 711 mmHg 28%
    Show more